This is the latest recevied weather packets stored in our database for station/object KD7CTY. If no packets are shown the sender has not sent any weather packets the latest 10 day(s).
| Time | Temp. | Humidity | Pressure | Rain* | Wind** | Luminosity | Snow |
|---|---|---|---|---|---|---|---|
| 1776963087 | 10° C | 85% | 1021.9 hPa | 0 mm | - | 216 W/m² | - |
| 1776962782 | 10° C | 84% | 1022 hPa | 0 mm | - | 230 W/m² | - |
| 1776962482 | 10° C | 85% | 1021.9 hPa | 0 mm | - | 241 W/m² | - |
| 1776962182 | 9.44° C | 86% | 1021.6 hPa | 0 mm | - | 250 W/m² | - |
| 1776961882 | 9.44° C | 86% | 1022.1 hPa | 0 mm | - | 219 W/m² | - |
| 1776961580 | 9.44° C | 87% | 1022 hPa | 0 mm | - | 195 W/m² | - |
| 1776961279 | 9.44° C | 87% | 1022.1 hPa | 0 mm | - | 174 W/m² | - |
| 1776960975 | 9.44° C | 86% | 1022.3 hPa | 0 mm | - | 156 W/m² | - |
| 1776960670 | 9.44° C | 86% | 1022.2 hPa | 0 mm | - | 149 W/m² | - |
| 1776960370 | 10° C | 84% | 1022.1 hPa | 0 mm | - | 148 W/m² | - |
| 1776960064 | 10° C | 85% | 1022.1 hPa | 0 mm | - | 188 W/m² | - |
| 1776959761 | 10° C | 84% | 1022 hPa | 0 mm | - | 260 W/m² | - |
| 1776959458 | 9.44° C | 86% | 1022.1 hPa | 0 mm | - | 368 W/m² | - |
| 1776959153 | 9.44° C | 88% | 1022.1 hPa | 0 mm | - | 299 W/m² | - |
| 1776958849 | 8.89° C | 89% | 1021.8 hPa | 0 mm | - | 286 W/m² | - |
| 1776958547 | 8.33° C | 90% | 1021.8 hPa | 0 mm | - | 241 W/m² | - |
| 1776958247 | 8.33° C | 90% | 1022 hPa | 0 mm | - | 99 W/m² | - |
| 1776957942 | 8.33° C | 90% | 1022 hPa | 0 mm | - | 89 W/m² | - |
| 1776957638 | 8.33° C | 90% | 1022 hPa | 0 mm | - | 93 W/m² | - |
| 1776957333 | 8.33° C | 91% | 1022 hPa | 0 mm | - | 91 W/m² | - |
| 1776957028 | 8.33° C | 90% | 1022.1 hPa | 0 mm | - | 95 W/m² | - |
| 1776956726 | 8.33° C | 91% | 1021.8 hPa | 0 mm | - | 118 W/m² | - |
| 1776956421 | 8.33° C | 92% | 1021.8 hPa | 0 mm | - | 147 W/m² | - |
| 1776956116 | 8.33° C | 93% | 1021.7 hPa | 0 mm | - | 150 W/m² | - |
| 1776955812 | 7.78° C | 93% | 1021.9 hPa | 0 mm | - | 104 W/m² | - |
* Rain latest hour (hover to see other rain measurements)
** Current wind speed in m/s (hover to see current wind gust speed)